Stations météo

réclame
Mon MeteoGroup
Arkona, Allemagne (10091): Température de l'air & dewpoint: 17.11.2017 12:00:00 - 23.11.2017 12:00:00 (CET)Arkona, Allemagne (10091): Température de l'air 5cm & Température de l'air -5cm: 17.11.2017 12:00:00 - 23.11.2017 12:00:00 (CET)Arkona, Allemagne (10091): Température de l'air -20cm & Température de l'air -100cm: 17.11.2017 12:00:00 - 23.11.2017 12:00:00 (CET)Arkona, Allemagne (10091): water temperature: 17.11.2017 12:00:00 - 23.11.2017 12:00:00 (CET)Arkona, Allemagne (10091): Vitesse du vent & gusts: 17.11.2017 12:00:00 - 23.11.2017 12:00:00 (CET)Arkona, Allemagne (10091): Direction du vent: 17.11.2017 12:00:00 - 23.11.2017 12:00:00 (CET)Arkona, Allemagne (10091): reduced air pressure: 17.11.2017 12:00:00 - 23.11.2017 12:00:00 (CET)Arkona, Allemagne (10091): visibility: 17.11.2017 12:00:00 - 23.11.2017 12:00:00 (CET)Arkona, Allemagne (10091): Ensoleillement: 17.11.2017 12:00:00 - 23.11.2017 12:00:00 (CET)Arkona, Allemagne (10091): Quantités de précipitations: 17.11.2017 12:00:00 - 23.11.2017 12:00:00 (CET)
Date & Time tt [°C] td [°C] tt 5cm [°C] tt -5cm [°C] tt -20cm [°C] tt -100cm [°C] tw [°C] ff [km/h] ff [knt] fx [km/h] fx [knt] dd ppp [hPa] vv [km] sd [min] rr [mm]
23.11.2017 12:00:00 8,5 4,3 8,1 6,4 5,8 8,6 8,7 43 23 52 28 SSW 999,8 49 1 0,0
23.11.2017 11:00:00 8,0 4,2 7,6 5,9 5,7 8,6 8,7 40 22 54 29 SSW 1000,7 44 0 0,0
23.11.2017 10:00:00 7,8 4,0 7,3 5,3 5,7 8,6 8,7 41 22 51 27 SSW 1000,7 37 0 0,0
23.11.2017 09:00:00 7,1 3,7 6,6 4,8 5,7 8,6 8,7 41 22 49 27 SSW 1001,3 37 0 0,0
23.11.2017 08:00:00 6,7 3,5 5,7 4,5 5,8 8,6 8,7 36 20 52 28 SSW 1001,7 31 0 0,0
23.11.2017 07:00:00 6,7 3,5 5,9 4,5 5,9 8,6 8,7 39 21 50 27 SSW 1001,8 29 0 0,0
23.11.2017 06:00:00 6,7 3,7 5,6 4,4 6,0 8,6 8,7 37 20 49 26 SSW 1002,0 24 0 0,0
23.11.2017 05:00:00 6,6 3,8 5,5 4,5 6,1 8,6 8,7 34 18 43 23 SSW 1002,3 23 0 0,0
23.11.2017 04:00:00 7,2 4,0 6,0 4,8 6,3 8,6 8,8 36 19 46 25 SSW 1002,5 24 0 0,0
23.11.2017 03:00:00 6,9 4,8 5,9 5,2 6,4 8,6 8,8 34 18 50 27 SSW 1002,6 17 0 0,0
23.11.2017 02:00:00 7,3 5,1 6,3 5,4 6,5 8,6 8,8 43 23 55 30 SSW 1002,8 17 0 0,0
23.11.2017 01:00:00 7,5 5,5 6,4 5,6 6,6 8,6 8,8 39 21 50 27 SSW 1003,2 16 0 0,0
23.11.2017 00:00:00 7,6 6,0 6,7 6,0 6,7 8,6 8,8 39 21 48 26 SSW 1003,4 13 0 0,0
22.11.2017 23:00:00 7,8 6,5 6,9 6,3 6,8 8,6 8,8 38 20 48 26 SSW 1003,6 11 0 0,0
22.11.2017 22:00:00 8,3 7,3 7,5 6,8 6,8 8,6 8,8 35 19 45 24 SSW 1003,7 7 0 0,0
22.11.2017 21:00:00 9,1 7,9 8,2 7,5 6,8 8,6 8,8 34 18 43 23 SSW 1003,8 7 0 0,0
22.11.2017 20:00:00 9,1 8,7 8,8 7,8 6,7 8,6 8,8 34 18 44 24 SW 1004,2 4,5 0 0,0
22.11.2017 19:00:00 9,1 8,8 8,9 7,8 6,6 8,6 8,8 35 19 45 24 SW 1004,2 5 0 0,0
22.11.2017 18:00:00 9,0 8,8 8,8 7,7 6,5 8,7 8,8 31 17 44 24 SW 1003,8 6 0 0,0
22.11.2017 17:00:00 9,0 8,9 8,8 7,7 6,4 8,7 8,8 30 16 40 22 SW 1003,9 7 0 0,1
22.11.2017 16:00:00 9,1 9,1 8,8 7,7 6,2 8,7 8,8 30 16 37 20 SW 1003,9 3,6 0 1,6
22.11.2017 15:00:00 9,2 9,1 8,9 7,6 6,1 8,7 8,8 28 15 35 19 SW 1003,6 3,1 0 0,4
22.11.2017 14:00:00 9,0 8,9 8,7 7,5 5,9 8,7 8,8 27 15 35 19 SW 1003,4 4,8 0 0,0
22.11.2017 13:00:00 8,7 8,7 8,6 7,3 5,7 8,7 8,7 24 13 35 19 SW 1003,2 3,5 0 0,2
22.11.2017 12:00:00 8,5 8,5 8,4 7,0 5,5 8,7 8,7 29 15 41 22 SW 1003,1 1,7 0 0,2
22.11.2017 11:00:00 8,1 8,1 8,0 6,5 5,3 8,8 8,7 29 16 36 19 SSW 1002,9 1,1 0 1,1
22.11.2017 10:00:00 7,4 7,4 7,2 5,9 5,2 8,8 8,7 29 16 37 20 SSW 1002,9 1,5 0 0,6
22.11.2017 09:00:00 6,6 6,6 6,5 5,4 5,1 8,8 8,7 26 14 37 20 SSW 1002,7 3,3 0 0,9
22.11.2017 08:00:00 5,7 5,7 5,6 5,0 5,0 8,8 8,6 30 16 35 19 SSW 1002,8 3,2 0 0,3
22.11.2017 07:00:00 5,2 5,1 5,0 4,7 5,0 8,8 8,6 28 15 40 21 S 1003,2 8 0 0,7
22.11.2017 06:00:00 4,9 4,5 4,6 4,6 4,9 8,8 8,6 27 15 45 24 S 1003,7 3,0 0 2,1
22.11.2017 05:00:00 4,9 4,5 4,6 4,5 4,9 8,9 8,6 37 20 45 25 SSE 1004,5 1,6 0 3,4
22.11.2017 04:00:00 4,6 4,2 4,4 4,4 4,9 8,9 8,5 29 15 44 24 SSE 1005,1 2,9 0 2,2
22.11.2017 03:00:00 4,7 3,8 4,2 4,3 4,9 8,9 8,5 29 15 44 24 SSE 1006,2 2,8 0 0,5
22.11.2017 02:00:00 4,9 3,7 4,3 4,3 4,9 8,9 8,4 31 17 43 23 SE 1007,3 3,8 0 0,0
22.11.2017 01:00:00 5,0 3,2 4,8 4,2 4,8 8,9 8,5 27 14 39 21 SE 1007,8 3,2 0 0,0
22.11.2017 00:00:00 5,0 2,9 4,8 4,2 4,8 8,9 8,4 26 14 37 20 SSE 1009,0 4,8 0 0,0
21.11.2017 23:00:00 5,0 2,8 4,8 4,1 4,8 8,9 8,4 20 11 32 18 SSE 1009,2 7 0 0,0
21.11.2017 22:00:00 4,5 3,3 4,3 4,0 4,8 8,9 8,4 15 8 25 13 S 1009,7 13 0 0,0
21.11.2017 21:00:00 4,6 3,4 4,3 4,0 4,8 8,9 8,4 13 7 25 13 S 1010,2 13 0 0,0
21.11.2017 20:00:00 4,7 3,5 4,2 3,9 4,9 8,9 8,5 11 6 22 12 S 1010,3 10 0 0,0
21.11.2017 19:00:00 4,8 2,7 4,2 3,7 4,9 8,9 8,7 12 6 18 10 SE 1010,5 19 0 0,0
21.11.2017 18:00:00 4,4 2,7 3,5 3,8 5,0 9,0 8,7 10 5 16 9 SSE 1010,7 17 0 0,0
21.11.2017 17:00:00 4,4 2,7 3,9 4,2 5,0 9,0 8,7 8 5 14 8 SSE 1010,6 17 0 0,0
21.11.2017 16:00:00 4,2 2,7 3,8 4,6 5,0 9,0 8,7 6 3 11 6 SSE 1010,6 15 0 0,0
21.11.2017 15:00:00 4,2 3,0 4,1 5,1 4,9 9,0 8,7 9 5 10 5 SSW 1010,5 9 0 0,0
21.11.2017 14:00:00 4,4 2,9 4,5 5,3 4,7 9,0 8,7 5 3 14 8 WSW 1010,6 8 0 0,0
21.11.2017 13:00:00 4,3 3,0 4,7 5,3 4,5 9,0 8,7 11 6 16 9 SW 1010,6 7 0 0,0
21.11.2017 12:00:00 4,2 3,2 4,8 5,0 4,3 9,0 8,7 13 7 16 9 SW 1010,9 6 0 0,0
21.11.2017 11:00:00 4,2 3,4 4,3 4,3 4,2 9,0 8,8 13 7 16 8 SSW 1010,7 5 0 0,0
21.11.2017 10:00:00 3,9 3,5 3,8 3,7 4,1 9,0 8,8 11 6 15 8 SW 1010,8 4,3 0 0,0
21.11.2017 09:00:00 3,3 3,1 3,2 3,1 4,1 9,0 8,8 14 7 18 10 SW 1010,8 3,1 0 0,0
21.11.2017 08:00:00 3,2 3,0 2,9 2,9 4,1 9,0 8,8 16 9 18 10 SW 1010,3 2,9 0 0,0
21.11.2017 07:00:00 3,2 3,1 2,8 2,9 4,1 9,1 8,8 13 7 17 9 SW 1010,1 3,0 0 0,0
21.11.2017 06:00:00 3,1 3,0 2,8 2,8 4,0 9,1 8,8 14 7 16 9 SW 1010,2 3,2 0 0,0
21.11.2017 05:00:00 3,1 3,0 2,8 2,7 4,0 9,1 8,9 13 7 16 9 SW 1010,3 3,8 0 0,0
21.11.2017 04:00:00 3,1 3,0 2,7 2,6 4,0 9,1 8,8 14 8 19 11 WSW 1010,3 4,8 0 0,0
21.11.2017 03:00:00 2,9 2,7 2,5 2,4 4,1 9,1 8,8 18 10 21 11 SW 1010,3 6 0 0,0
21.11.2017 02:00:00 2,6 2,3 2,0 2,2 4,1 9,1 8,8 18 10 24 13 SW 1010,5 10 0 0,0
21.11.2017 01:00:00 2,3 1,8 1,6 2,1 4,2 9,1 8,8 20 11 24 13 SW 1010,6 15 0 0,0
21.11.2017 00:00:00 2,5 1,9 1,4 2,3 4,3 9,1 8,8 17 9 22 12 SW 1010,8 34 0 0,0
20.11.2017 23:00:00 3,2 2,5 2,3 2,5 4,4 9,1 8,8 19 10 22 12 SW 1011,0 41 0 0,0
20.11.2017 22:00:00 3,1 2,4 2,0 2,5 4,4 9,1 8,7 18 10 22 12 SW 1011,2 47 0 0,0
20.11.2017 21:00:00 3,4 2,3 2,4 2,6 4,5 9,1 8,7 16 9 20 11 SSW 1011,3 70 0 0,0
20.11.2017 20:00:00 3,1 1,7 1,5 2,9 4,6 9,2 8,8 10 5 14 8 SW 1011,3 70 0 0,0
20.11.2017 19:00:00 5,0 1,0 2,4 3,2 4,6 9,2 8,8 3 2 13 7 NNW 1011,1 70 0 0,0
20.11.2017 18:00:00 5,2 1,3 3,5 3,3 4,7 9,2 8,9 8 4 13 7 WNW 1011,1 70 0 0,0
20.11.2017 17:00:00 5,3 1,7 4,0 3,5 4,7 9,2 8,9 9 5 21 11 NW 1011,2 58 0 0,0
20.11.2017 16:00:00 5,2 1,9 3,7 3,8 4,7 9,2 8,9 15 8 26 14 NNW 1011,2 70 0 0,0
20.11.2017 15:00:00 5,3 2,2 4,1 4,3 4,6 9,2 8,9 15 8 33 18 NNW 1011,1 70 2 0,0
20.11.2017 14:00:00 4,3 2,3 3,7 4,3 4,5 9,2 8,9 6 3 36 19 N 1011,1 70 0 0,9
20.11.2017 13:00:00 5,5 1,7 4,8 4,4 4,3 9,2 8,9 17 9 33 18 NNW 1010,9 70 1 0,0
20.11.2017 12:00:00 5,3 1,9 4,4 4,3 4,1 9,2 8,9 22 12 33 18 NW 1010,7 70 8 0,0
20.11.2017 11:00:00 4,2 1,8 3,3 3,4 4,0 9,2 8,9 12 6 34 18 NNW 1010,7 60 0 0,5
20.11.2017 10:00:00 5,5 0,3 5,0 2,4 4,0 9,2 8,9 13 7 23 12 WNW 1010,5 70 41 0,0
20.11.2017 09:00:00 5,0 0,0 3,8 1,4 4,1 9,2 8,9 16 9 24 13 WNW 1010,2 70 18 0,0
20.11.2017 08:00:00 4,7 -1,5 2,8 1,5 4,2 9,2 8,9 17 9 28 15 NW 1010,2 70 0 0,0
20.11.2017 07:00:00 4,6 -1,3 2,9 1,6 4,4 9,2 8,9 18 10 32 18 NW 1009,8 70 0 0,0
20.11.2017 06:00:00 4,3 -1,5 2,4 2,0 4,5 9,3 8,9 23 12 38 20 WNW 1009,6 70 0 0,0
20.11.2017 05:00:00 4,4 -1,1 3,0 2,2 4,6 9,3 8,9 27 14 45 24 NW 1009,7 70 0 0,0
20.11.2017 04:00:00 4,4 -0,5 3,0 2,6 4,7 9,3 9,0 28 15 48 26 WNW 1009,5 70 0 0,0
20.11.2017 03:00:00 4,9 -0,5 4,3 3,0 4,7 9,3 9,0 33 18 49 26 NW 1009,0 70 0 0,0
20.11.2017 02:00:00 4,7 0,5 4,2 2,9 4,8 9,3 8,9 31 17 48 26 WNW 1008,9 54 0 0,0
20.11.2017 01:00:00 4,6 0,2 3,7 2,6 4,9 9,3 9,0 32 18 51 28 NW 1008,9 60 0 0,0
20.11.2017 00:00:00 4,4 -0,5 3,0 2,5 5,1 9,3 9,0 31 17 56 30 NNW 1008,4 70 0 0,0
19.11.2017 23:00:00 4,6 0,2 3,8 2,8 5,2 9,3 9,0 30 16 58 31 NNW 1007,8 61 0 0,0
19.11.2017 22:00:00 4,5 0,7 3,6 3,6 5,2 9,3 9,0 35 19 72 39 NNW 1006,7 70 0 0,0
19.11.2017 21:00:00 4,8 1,8 4,4 3,8 5,3 9,3 9,0 29 16 61 33 N 1005,2 47 0 0,0
19.11.2017 20:00:00 4,3 1,0 3,6 3,8 5,4 9,3 8,9 30 16 69 37 N 1003,5 68 0 0,1
19.11.2017 19:00:00 3,7 1,7 2,9 3,9 5,5 9,3 8,9 47 26 80 43 NNW 1002,3 25 0 0,3
19.11.2017 18:00:00 4,5 1,4 4,0 4,0 5,5 9,3 8,9 61 33 87 47 NNW 1000,9 45 0 0,8
19.11.2017 17:00:00 3,9 1,9 3,0 4,1 5,6 9,3 8,9 58 31 93 50 NW 999,9 6 0 0,2
19.11.2017 16:00:00 4,6 1,7 3,8 4,3 5,7 9,4 9,0 54 29 80 43 NW 999,8 14 0 0,1
19.11.2017 15:00:00 3,8 1,5 2,9 4,7 5,8 9,4 9,0 55 30 89 48 NW 999,6 8 0 0,0
19.11.2017 14:00:00 4,8 1,5 3,5 5,2 5,7 9,4 9,0 46 25 71 38 WNW 999,0 21 0 0,5
19.11.2017 13:00:00 5,7 1,7 5,4 5,8 5,6 9,4 9,0 41 22 63 34 WNW 998,5 44 17 0,0
19.11.2017 12:00:00 6,2 1,9 6,3 5,7 5,5 9,4 9,0 42 23 62 33 WNW 997,9 43 22 0,0
19.11.2017 11:00:00 6,3 2,8 5,5 4,8 5,5 9,4 9,0 36 20 61 33 WNW 997,4 61 0 0,4
19.11.2017 10:00:00 5,0 2,2 4,4 4,6 5,5 9,4 9,1 37 20 71 39 W 996,9 56 0 0,8
19.11.2017 09:00:00 6,3 3,4 5,5 5,1 5,5 9,4 9,1 58 31 72 39 W 997,0 36 0 0,0
19.11.2017 08:00:00 6,6 3,7 6,2 4,6 5,4 9,4 9,1 47 26 62 34 W 996,8 42 0 0,0
19.11.2017 07:00:00 5,9 3,2 5,5 4,8 5,4 9,4 9,1 52 28 68 37 W 997,2 60 0 0,0
19.11.2017 06:00:00 6,3 3,7 5,9 4,8 5,4 9,4 9,1 53 29 76 41 W 997,8 38 0 0,2
19.11.2017 05:00:00 6,0 3,9 4,9 4,5 5,4 9,4 9,1 58 32 80 43 WSW 998,2 11 0 0,0
19.11.2017 04:00:00 5,8 3,0 5,0 4,1 5,4 9,4 9,1 55 30 72 39 WSW 998,9 46 0 0,0
19.11.2017 03:00:00 5,8 3,6 5,0 4,2 5,4 9,4 9,2 51 27 79 43 W 999,8 39 0 0,8
19.11.2017 02:00:00 5,0 3,1 4,0 4,5 5,4 9,4 9,2 52 28 71 38 W 1000,6 0,8 0 0,0
19.11.2017 01:00:00 6,1 3,6 5,4 4,6 5,4 9,5 9,2 54 29 69 38 W 1001,2 44 0 0,0
19.11.2017 00:00:00 6,7 3,5 6,3 4,7 5,3 9,5 9,2 54 29 75 41 W 1001,8 37 0 0,0
18.11.2017 23:00:00 6,7 2,8 6,0 4,5 5,3 9,5 9,2 54 29 75 40 W 1002,1 35 0 0,0
18.11.2017 22:00:00 6,4 3,0 5,7 4,1 5,3 9,5 9,2 47 25 66 36 W 1002,6 31 0 0,0
18.11.2017 21:00:00 6,2 2,2 5,3 4,2 5,3 9,5 9,2 49 26 64 35 W 1003,1 44 0 0,0
18.11.2017 20:00:00 6,0 2,2 5,2 3,9 5,4 9,5 9,2 46 25 61 33 W 1003,4 33 0 0,0
18.11.2017 19:00:00 5,8 1,4 4,7 3,7 5,4 9,5 9,1 44 24 59 32 W 1003,8 42 0 0,0
18.11.2017 18:00:00 6,0 1,9 5,0 4,0 5,5 9,5 9,1 48 26 61 33 W 1003,8 52 0 0,0
18.11.2017 17:00:00 5,6 1,7 4,7 4,0 5,6 9,5 9,1 44 24 60 32 W 1003,7 55 0 0,0
18.11.2017 16:00:00 5,3 2,1 4,7 4,5 5,6 9,5 9,1 46 25 65 35 W 1003,8 70 0 0,0
18.11.2017 15:00:00 5,2 2,7 4,9 4,8 5,6 9,5 9,1 45 25 66 35 W 1003,6 64 0 0,0
18.11.2017 14:00:00 5,8 2,8 4,7 4,8 5,5 9,5 9,1 46 25 70 38 W 1003,9 27 0 2,3
18.11.2017 13:00:00 5,0 3,7 4,4 4,9 5,5 9,5 9,1 46 25 67 36 WSW 1004,3 4,6 0 0,5
18.11.2017 12:00:00 5,3 3,1 4,7 5,0 5,4 9,5 9,1 49 27 66 36 SW 1005,3 15 0 0,0
18.11.2017 11:00:00 5,1 2,9 4,9 4,6 5,3 9,5 9,1 49 26 64 35 SW 1006,7 19 0 0,0
18.11.2017 10:00:00 4,5 2,6 4,1 4,1 5,3 9,5 9,1 48 26 63 34 SW 1008,0 20 0 0,0
18.11.2017 09:00:00 4,6 2,3 4,1 3,6 5,3 9,5 9,1 44 24 56 30 SW 1009,4 26 0 0,0
18.11.2017 08:00:00 4,6 2,9 4,0 3,2 5,4 9,5 9,1 37 20 48 26 SW 1010,6 24 0 0,0
18.11.2017 07:00:00 4,2 2,7 3,2 3,1 5,5 9,5 9,2 34 18 46 25 SW 1011,6 27 0 0,0
18.11.2017 06:00:00 4,3 2,9 3,0 3,3 5,6 9,5 9,1 33 18 45 24 SW 1012,6 27 0 0,0
18.11.2017 05:00:00 4,4 2,9 3,3 3,6 5,7 9,5 9,2 37 20 46 25 SW 1013,4 29 0 0,0
18.11.2017 04:00:00 4,7 3,4 3,8 3,9 5,8 9,5 9,2 34 18 42 23 SW 1014,7 27 0 0,0
18.11.2017 03:00:00 4,5 3,5 3,2 3,8 5,9 9,5 9,1 31 17 42 23 SW 1015,9 19 0 0,0
18.11.2017 02:00:00 4,9 3,6 3,9 4,3 6,0 9,5 9,1 33 18 42 23 WSW 1016,8 23 0 0,0
18.11.2017 01:00:00 5,1 3,7 4,4 4,5 6,0 9,5 9,1 32 17 42 23 SW 1017,5 27 0 0,0
18.11.2017 00:00:00 5,2 3,9 4,2 4,6 6,1 9,5 9,1 32 17 42 23 SW 1018,2 28 0 0,0
17.11.2017 23:00:00 5,2 3,9 4,4 4,4 6,2 9,5 9,2 34 18 46 25 WSW 1018,9 28 0 0,2
17.11.2017 22:00:00 5,8 4,7 5,1 4,7 6,3 9,5 9,1 30 16 39 21 WSW 1019,5 17 0 0,2
17.11.2017 21:00:00 5,4 4,3 4,4 4,3 6,4 9,5 9,1 26 14 33 18 WSW 1020,1 28 0 0,0
17.11.2017 20:00:00 5,1 4,1 3,9 4,4 6,6 9,5 9,1 24 13 38 20 WSW 1020,5 32 0 0,0
17.11.2017 19:00:00 6,4 4,1 5,0 4,7 6,7 9,5 9,2 30 16 37 20 W 1020,9 43 0 0,0
17.11.2017 18:00:00 6,6 4,2 5,2 5,1 6,9 9,5 9,2 31 17 41 22 W 1021,1 41 0 0,0
17.11.2017 17:00:00 7,2 4,0 6,0 5,5 7,0 9,6 9,2 33 18 42 23 W 1021,5 43 0 0,0
17.11.2017 16:00:00 7,2 4,4 6,2 6,3 7,0 9,6 9,2 29 16 37 20 W 1021,6 39 33 0,0
17.11.2017 15:00:00 7,9 4,4 7,6 7,0 6,9 9,6 9,2 31 17 42 23 W 1021,8 31 59 0,0
17.11.2017 14:00:00 8,2 3,9 8,4 7,3 6,8 9,6 9,2 35 19 45 24 W 1022,0 22 60 0,0
17.11.2017 13:00:00 8,2 4,0 8,8 7,3 6,6 9,6 9,2 35 19 46 25 W 1022,3 19 60 0,0
17.11.2017 12:00:00 8,2 4,0 8,8 6,9 6,4 9,6 9,2 34 19 46 25 W 1022,3 27 60 0,0

tt = Température de l'air
td = dewpoint
tt 5cm = Température de l'air 5cm
tt -5cm = Température de l'air -5cm
tt -20cm = Température de l'air -20cm
tt -100cm = Température de l'air -100cm
tw = water temperature
ff = Vitesse du vent
fx = gusts
dd = Direction du vent
ppp = reduced air pressure
vv = visibility
sd = Ensoleillement
rr = Quantités de précipitations

stations d'obs. à proximité